Location: George Washington National Forest Helicopter Landing Site
(38.6463°N, 79.0851°W)
Time: 11:39:16
(UTC-04:00)

Tiros 1 despin weight - Pass Details

Date: 27 August 2019
Orbit: 594 x 642 km, 48.2° (Epoch: 19 September)

Event Time Altitude Azimuth Distance (km) Brightness Sun altitude
Rises 05:54:06 0° 293° (WNW) 2,877 - -9.5°
Exits shadow 05:55:40 - 287° (WNW) 2,317 ? -9.3°
Reaches altitude 10° 05:56:40 10° 281° (WNW) 1,978 ? -9.1°
Maximum altitude 06:00:28 26° 225° (SW) 1,213 ? -8.4°
Drops below altitude 10° 06:04:18 10° 168° (SSE) 1,994 ? -7.7°
Sets 06:06:54 0° 156° (SSE) 2,905 ? -7.2°
